Погода в Бесовце

Россия / Республика Карелия     61°51′53″N   34°09′24″E
темп.,
°C
ветер,
м/с
пор.,
м/с
влажн.,
%
обл.,
%
осадки,
мм/ч
давл.,
гПа
погр.,
м
3 марта, ср
ср300:00−6зсз310912 0.0 1012249
03:00−6з411955 0.0 1012321
06:00−3з5109595 0.0 1009497
09:00−3з5129397 0.0 1008574
12:00−1з5119296 0.0 1005463
15:00−1з6119298 0.3 1003768
18:00−2з51196100 1.0 998852
21:00−1зсз81587100 2.3 9961155
4 марта, чт
чт400:00−3сз51193100 0.6 995808
03:00−5ссз41094100 0.8 998685
06:00−9сз389799 0.2 999243
09:00−11зсз269788 0.2 1000164
12:00−6сз359156 0.0 1001363
15:00−5сз358846 0.0 1001708
18:00−8зсз2293100 0.1 100127
21:00−10зсз249596 0.1 100290
5 марта, пт
пт500:00−13з239762 0.0 100236
03:00−12зсз249763 0.1 1004110
06:00−11с279697 0.4 1005313
09:00−14ссз379797 0.4 1007286
12:00−11ссз3592100 0.1 1009475
15:00−10ссз3583100 0.1 1011810
18:00−13зсз229022 0.0 101223
21:00−12з379458 0.0 1013175
6 марта, сб
сб600:00−14з249783 0.1 101382
03:00−15з249779 0.1 101488
06:00−16з239777 0.0 101454
09:00−14з379443 0.0 1013190
12:00−8зюз488737 0.0 1011397
15:00−6юз5108543 0.0 1007833
18:00−7ююз51288100 0.1 1001724
21:00−6ю61491100 0.8 9941092
7 марта, вс
вс700:00−5ю61492100 0.8 987784
03:00−2юз51194100 2.3 983791
06:00−10зюз4129193 0.1 982601
09:00−13зюз4108780 0.1 983553
12:00−10з358293 0.0 986789
15:00−10ссз248797 0.1 988623
18:00−9ссз3995100 0.8 992710
21:00−12ссв61293100 1.6 996888